Flag for USA Past Weather in Furnace Creek (Death Valley), California, USA — Yesterday and Last 2 Weeks

Now
67 °F

Clear.


Feels Like: 67 °F
Forecast: 71 / 100 °F
Wind: 5 mph from Northeast

Location: Desert Rock Airport

Current Time: May 29, 2016 at 12:58:15 AM

Latest Report: May 28, 2016 at 11:53 PM


Visibility: 10 mi

Pressure: 29.78 "Hg

Humidity: 20%

Dew Point: 24 °F

Location of Furnace Creek (Death Valley)Location

Past Weather in Furnace Creek (Death Valley) — Graph

°F

Furnace Creek (Death Valley) Temperature Yesterday

Maximum temperature yesterday: 86 °F (at 1:53 PM)
Minimum temperature yesterday: 57 °F (at 3:53 AM)
Average temperature yesterday: 74 °F

High & Low Weather Summary for the Past Weeks

 TemperatureHumidityPressure
High90 °F (May 19, 2:53 PM)55% (May 25, 4:53 AM)29.92 "Hg (May 25, 4:53 AM)
Low49 °F (May 22, 4:53 AM)6% (May 20, 7:53 AM)29.37 "Hg (May 20, 2:53 AM)
Average68 °F25%29.73 "Hg
* Reported May 18 9:55 AM — May 28 11:53 PM, Furnace Creek (Death Valley), Weather by CustomWeather, © 2016

Note: Actual official high and low records may vary slightly from our data, if they occured in-between our weather recording intervals... More about our weather records

Advertising

Furnace Creek (Death Valley) Weather History for the Previous 24 Hours

Scroll right to see more
 ConditionsComfort  
Time TempWeatherWind HumidityBarometerVisibility
11:53 PM
Sat, May 28
67 °FClear.5 mph20%29.78 "Hg10 mi
10:53 PM68 °FClear.6 mph19%29.78 "Hg10 mi
9:53 PM69 °FClear.5 mph17%29.77 "Hg10 mi
8:53 PM76 °FSunny.3 mph13%29.75 "Hg10 mi
7:53 PM80 °FSunny.5 mph13%29.72 "Hg10 mi
6:53 PM83 °FPartly sunny.10 mph13%29.72 "Hg10 mi
5:53 PM85 °FOvercast.12 mph13%29.71 "Hg10 mi
4:53 PM86 °FPartly sunny.13 mph13%29.71 "Hg10 mi
3:53 PM84 °FOvercast.9 mph15%29.72 "Hg10 mi
2:53 PM86 °FPassing clouds.15 mph13%29.72 "Hg10 mi
1:53 PM86 °FPassing clouds.12 mph12%29.73 "Hg10 mi
12:53 PM82 °FPartly sunny.14 mph16%29.76 "Hg10 mi
11:53 AM84 °FPartly sunny.13 mph15%29.76 "Hg10 mi
10:53 AM82 °FPartly sunny.9 mph14%29.76 "Hg10 mi
9:53 AM81 °FSunny.No wind14%29.76 "Hg10 mi
8:53 AM76 °FSunny.No wind17%29.76 "Hg10 mi
7:53 AM69 °FSunny.No wind21%29.77 "Hg10 mi
6:53 AM62 °FSunny.No wind29%29.76 "Hg10 mi
5:53 AM59 °FClear.No wind31%29.75 "Hg10 mi
4:53 AM57 °FClear.No wind33%29.73 "Hg10 mi
3:53 AM57 °FClear.3 mph32%29.72 "Hg10 mi
2:53 AM63 °FClear.No wind26%29.71 "Hg10 mi
1:53 AM61 °FClear.No wind27%29.72 "Hg10 mi
12:53 AM63 °FClear.3 mph27%29.71 "Hg10 mi
Weather by CustomWeather, © 2016

See weather overviewHow to use our weather pages